Regional Weather Roundup
Issued by NWS Green Bay, WI

Home | Current Version | Previous Version | Text Only | Print | Product List | Glossary On
Versions: 1 2 3 4 5 6 7 8 9 10 11 12 13 14 15 16 17 18 19 20 21 22 23 24 25 26 27 28 29 30 31 32 33 34 35 36 37 38 39 40 41 42 43 44 45 46 47 48 49 50
453
ASUS43 KGRB 250011
RWRGRB

NORTH-CENTRAL AND NORTHEAST WISCONSIN REGIONAL WEATHER ROUNDUP
NATIONAL WEATHER SERVICE GREEN BAY WI
700 PM CDT SAT AUG 24 2019

WIZ005-009-010>012-018-019-250100-
NORTH CENTRAL WISCONSIN

CITY           SKY/WX    TMP DP  RH WIND       PRES   REMARKS
IRONWOOD       FAIR      68  51  54 SE9       30.23S
MANITOWISH WTR FAIR      65  52  61 S3        30.24F
ARBOR VITAE    FAIR      67  52  59 S6        30.24F
EAGLE RIVER    MOCLDY    65  49  57 CALM      30.25F
LAND O LAKES   FAIR      65  49  56 S5        30.28S
RHINELANDER    MOCLDY    66  51  58 SE5       30.25F
PHILLIPS       FAIR      67  52  58 SE5       30.22F
ANTIGO         MOCLDY    64  55  71 SE6       30.26S
TOMAHAWK       FAIR      60  54  79 CALM      30.25S
MERRILL        CLOUDY    68  54  59 SE5       30.24F
$$

WIZ013-073-250100-
NORTHEAST WISCONSIN

CITY           SKY/WX    TMP DP  RH WIND       PRES   REMARKS
IRON MOUNTAIN  FAIR      68  51  54 S6        30.25S
MARINETTE      FAIR      68  53  58 SE5       30.27S
OCONTO         FAIR      67  54  62 SE5       30.26R
$$

WIZ017-030-035>037-045-250100-
CENTRAL WISCONSIN

CITY           SKY/WX    TMP DP  RH WIND       PRES   REMARKS
MEDFORD        CLOUDY    66  55  67 SE3       30.22F
WAUSAU         CLOUDY    70  53  54 SE10      30.21F
MOSINEE        PTCLDY    66  55  68 CALM      30.24S
MARSHFIELD     MOCLDY    70  55  59 SE6       30.21F
WISC RAPIDS    FAIR      69  55  60 SE3       30.21F
STEVENS POINT  MOCLDY    68  55  62 SE7       30.23S
WAUPACA        FAIR      73  53  49 SE7       30.23S
SHAWANO        FAIR      69  56  62 E6        30.25R
CLINTONVILLE   MOCLDY    70  54  56 SE6       30.24R
WAUTOMA        FAIR      70  56  61 SE6       30.22F
$$

WIZ038-039-048-051-250100-
FOX VALLEY

CITY           SKY/WX    TMP DP  RH WIND       PRES   REMARKS
NWS GREEN BAY  FAIR      69  54  58 SE12      30.25R
APPLETON       PTCLDY    70  52  52 SE9       30.23S
OSHKOSH        FAIR      69  53  56 SE10      30.23S
FOND DU LAC    FAIR      71  51  49 SE13      30.24S
$$

WIZ022-050-052-250100-
EAST CENTRAL WISCONSIN

CITY           SKY/WX    TMP DP  RH WIND       PRES   REMARKS
EPHRAIM        FAIR      65  50  59 E5        30.26S
WASHINGTON ISL FAIR      65  51  62 CALM      30.27R
STURGEON BAY   FAIR      66  52  60 E3        30.27S
MANITOWOC      FAIR      67  54  63 CALM      30.26S
SHEBOYGAN      FAIR      67  51  56 E3        30.25S
$$

LMZ563-521-522-541>543-250100-
LAKESHORE

STATION/POSITION TIME  TEMP    WIND        PRES    VSBY  WAVE
                       AIR SEA DIR/SP/G                  HT/PER
                 (UTC) (F)     (DEG/KT/KT) (MB)    (MI)  (FT/S)
SHEBOYGAN LKSHOR 0000   67      60/  4/  5 1024.4F
KEWAUNEE LKSHORE 2324   69      CALM  /  3 1024.1
NORTHPORT PIER   2340   68      40/  2/  3 1024.4F
N MID LAKE BUOY  2350   67 71   50/  6/  8 1025.2S         0
S GREEN BAY BUOY 2330   74 71  130/ 10/ 12 1024.4S
SISTER BAY LKSHO 2326   69     110/  4/  8   N/A
MENOMINEE LKSHOR 2324   68 71  110/  4/  5 1024.4
$$




USA.gov is the U.S. government's official web portal to all federal, state and local government web resources and services.